Date String (YYYY-MM-DD hh:mm:ss) UTC,Instrument flags,Ambient pressure (hPa),Sample flow (lpm),Bypass flow (lpm),Sample temperature (°C),Ambient temperature (°C),ASC tube jacket temperature (°C),LED temperature (°C),Box temperature (°C),Sample RH (%),Span deviation,Mass concentration (μg/m³),Mass concentration (μg/m³),Mass concentration (μg/m³)
DateTimeUTC,F1_M11,P_M11,Q1_M11,Q2_M11,T1_M11,T2_M11,T3_M11,T4_M11,T5_M11,U1_M11,ZSPAN_M11,X2_M11,X0_M11,X1_M11
2022-02-27 10:00:00,,0831.6,5.01,0.00,22.1,22.8,00.0,31.1,24.0,06.4,0002.5,0009.24,0013.66,0008.55
2022-02-27 10:01:00,,0831.6,4.98,0.00,22.1,22.7,00.0,31.1,24.0,06.3,0002.9,0009.04,0013.44,0008.38
2022-02-27 10:02:00,,0831.7,5.00,0.00,22.1,22.4,00.0,31.1,24.0,06.3,0003.0,0008.82,0013.16,0008.16
2022-02-27 10:03:00,,0831.6,5.01,0.00,22.1,22.1,00.0,31.1,23.9,06.3,0003.4,0008.69,0012.65,0008.01
2022-02-27 10:04:00,,0831.7,5.00,0.00,22.1,21.9,00.0,31.1,23.8,06.3,0002.6,0008.50,0012.34,0007.88
2022-02-27 10:05:00,,0831.7,5.01,0.00,22.1,21.8,00.0,31.1,23.8,06.3,0002.5,0008.31,0012.26,0007.74
2022-02-27 10:06:00,,0831.7,5.01,0.00,22.0,21.6,00.0,31.1,23.7,06.3,0002.7,0008.14,0011.92,0007.62
2022-02-27 10:07:00,,0831.7,4.98,0.00,22.0,21.5,00.0,31.1,23.7,06.3,0002.4,0008.03,0011.68,0007.51
2022-02-27 10:08:00,,0831.6,5.01,0.00,22.0,21.4,00.0,31.1,23.6,06.3,0002.5,0007.97,0011.62,0007.43
2022-02-27 10:09:00,,0831.7,4.99,0.00,22.0,21.3,00.0,31.0,23.6,06.2,0003.0,0007.95,0012.26,0007.36
2022-02-27 10:10:00,,0831.6,5.01,0.00,21.9,21.3,00.0,31.0,23.6,06.3,0003.4,0007.88,0012.58,0007.29
2022-02-27 10:11:00,,0831.7,5.00,0.00,21.9,21.3,00.0,31.0,23.6,06.3,0003.5,0007.81,0012.47,0007.24
2022-02-27 10:12:00,,0831.7,5.00,0.00,22.0,21.8,00.0,31.0,23.7,06.3,0003.0,0007.74,0012.31,0007.18
2022-02-27 10:13:00,,0831.7,5.00,0.00,22.1,22.6,00.0,31.1,24.0,06.2,0003.0,0007.64,0012.13,0007.12
2022-02-27 10:14:00,,0831.7,5.01,0.00,22.2,23.1,00.0,31.1,24.2,06.2,0002.8,0007.57,0012.32,0007.07
2022-02-27 10:15:00,,0831.7,4.99,0.00,22.3,22.9,00.0,31.1,24.2,06.2,0003.3,0007.57,0012.98,0007.02
2022-02-27 10:16:00,,0831.6,5.00,0.00,22.3,22.6,00.0,31.2,24.2,06.2,0003.1,0007.55,0012.94,0006.99
2022-02-27 10:17:00,,0831.7,5.02,0.00,22.3,22.4,00.0,31.2,24.1,06.2,0002.7,0007.59,0013.33,0006.99
2022-02-27 10:18:00,,0831.7,5.00,0.00,22.3,22.2,00.0,31.2,24.1,06.2,0002.2,0007.57,0013.34,0006.99
2022-02-27 10:19:00,,0831.6,5.01,0.00,22.3,22.0,00.0,31.2,24.0,06.2,0000.0,0007.56,0013.33,0007.00
2022-02-27 10:20:00,,0831.7,5.00,0.00,22.2,21.8,00.0,31.2,23.9,06.1,0001.9,0007.51,0012.82,0006.99
2022-02-27 10:21:00,,0831.6,4.99,0.00,22.2,21.7,00.0,31.2,23.9,06.2,0004.0,0007.47,0012.40,0006.96
2022-02-27 10:22:00,,0831.7,5.01,0.00,22.2,21.6,00.0,31.2,23.8,06.2,0003.1,0007.45,0012.52,0006.93
2022-02-27 10:23:00,,0831.7,5.00,0.00,22.1,21.5,00.0,31.2,23.8,06.1,0000.0,0007.38,0012.48,0006.87
2022-02-27 10:24:00,,0831.7,5.00,0.00,22.1,21.5,00.0,31.1,23.8,06.1,0003.4,0007.34,0012.46,0006.81
2022-02-27 10:25:00,,0831.7,5.00,0.00,22.1,21.4,00.0,31.1,23.7,06.1,0000.1,0007.34,0012.34,0006.74
2022-02-27 10:26:00,,0831.6,5.01,0.00,22.0,21.4,00.0,31.1,23.7,06.2,0000.0,0007.25,0011.56,0006.67
2022-02-27 10:27:00,,0831.7,5.01,0.00,22.1,21.6,00.0,31.1,23.8,06.1,0000.1,0007.17,0011.34,0006.56
2022-02-27 10:28:00,,0831.7,5.00,0.00,22.1,22.3,00.0,31.1,24.0,06.1,0003.1,0007.03,0010.84,0006.43
2022-02-27 10:29:00,,0831.7,5.01,0.00,22.3,23.1,00.0,31.2,24.2,06.0,0000.0,0006.87,0010.57,0006.26
2022-02-27 10:30:00,,0831.7,4.99,0.00,22.4,23.1,00.0,31.2,24.3,06.0,0000.0,0006.73,0010.44,0006.12
2022-02-27 10:31:00,,0831.7,5.00,0.00,22.4,22.8,00.0,31.2,24.3,06.0,0000.0,0006.63,0010.23,0006.03
2022-02-27 10:32:00,,0831.6,4.99,0.00,22.4,22.5,00.0,31.2,24.2,06.0,0003.0,0006.56,0010.04,0005.96
2022-02-27 10:33:00,,0831.7,5.01,0.00,22.4,22.3,00.0,31.2,24.1,06.0,0003.0,0006.48,0009.81,0005.89
2022-02-27 10:34:00,,0831.7,5.01,0.00,22.3,22.1,00.0,31.2,24.0,06.0,0002.9,0006.42,0009.71,0005.82
2022-02-27 10:35:00,,0831.7,5.00,0.00,22.3,21.9,00.0,31.2,24.0,06.0,0002.7,0006.39,0009.82,0005.78
2022-02-27 10:36:00,,0831.7,4.99,0.00,22.3,21.8,00.0,31.2,23.9,06.0,0002.6,0006.29,0009.70,0005.73
2022-02-27 10:37:00,,0831.7,4.99,0.00,22.2,21.7,00.0,31.2,23.9,06.0,0002.0,0006.26,0009.96,0005.68
2022-02-27 10:38:00,,0831.6,5.01,0.00,22.2,21.6,00.0,31.2,23.8,06.0,0002.2,0006.17,0010.12,0005.64
2022-02-27 10:39:00,,0831.6,4.99,0.00,22.2,21.5,00.0,31.2,23.8,06.0,0002.1,0006.09,0010.86,0005.61
2022-02-27 10:40:00,,0831.6,5.00,0.00,22.1,21.5,00.0,31.2,23.8,06.1,0001.9,0006.09,0011.00,0005.62
2022-02-27 10:41:00,,0831.7,5.00,0.00,22.1,21.4,00.0,31.2,23.7,06.1,0002.3,0006.08,0010.98,0005.62
2022-02-27 10:42:00,,0831.7,5.00,0.00,22.1,21.3,00.0,31.2,23.7,06.1,0002.9,0006.07,0010.97,0005.61
2022-02-27 10:43:00,,0831.7,5.00,0.00,22.0,21.5,00.0,31.2,23.7,06.1,0003.1,0006.07,0011.16,0005.58
2022-02-27 10:44:00,,0831.6,5.01,0.00,22.1,22.2,00.0,31.2,23.9,06.1,0003.8,0006.05,0011.00,0005.59
2022-02-27 10:45:00,,0831.7,5.01,0.00,22.3,22.9,00.0,31.2,24.2,06.1,0004.0,0006.11,0011.07,0005.64
2022-02-27 10:46:00,,0831.7,4.98,0.00,22.4,22.9,00.0,31.2,24.3,06.1,0004.2,0006.17,0011.07,0005.68
2022-02-27 10:47:00,,0831.7,5.00,0.00,22.3,22.6,00.0,31.2,24.2,06.1,0004.1,0006.24,0011.22,0005.74
2022-02-27 10:48:00,,0831.7,5.02,0.00,22.3,22.3,00.0,31.2,24.0,06.1,0004.1,0006.26,0010.99,0005.77
2022-02-27 10:49:00,,0831.7,4.98,0.00,22.2,22.0,00.0,31.2,23.9,06.1,0003.9,0006.31,0010.76,0005.83
2022-02-27 10:50:00,,0831.6,5.01,0.00,22.2,21.8,00.0,31.2,23.8,06.1,0003.9,0006.39,0009.96,0005.88
2022-02-27 10:51:00,,0831.7,5.00,0.00,22.1,21.7,00.0,31.2,23.8,06.1,0004.0,0006.48,0010.20,0005.94
2022-02-27 10:52:00,,0831.7,5.01,0.00,22.1,21.5,00.0,31.2,23.7,06.1,0004.0,0006.54,0010.50,0005.99
2022-02-27 10:53:00,,0831.7,5.00,0.00,22.0,21.4,00.0,31.2,23.7,06.2,0004.1,0006.56,0010.52,0006.02
2022-02-27 10:54:00,,0831.7,5.00,0.00,22.0,21.3,00.0,31.2,23.6,06.2,0004.0,0006.59,0010.33,0006.07
2022-02-27 10:55:00,,0831.7,4.99,0.00,22.0,21.2,00.0,31.1,23.6,06.2,0004.0,0006.63,0010.47,0006.07
2022-02-27 10:56:00,,0831.7,5.00,0.00,21.9,21.2,00.0,31.1,23.5,06.2,0004.2,0006.63,0010.53,0006.06
2022-02-27 10:57:00,,0831.7,4.99,0.00,21.9,21.4,00.0,31.1,23.6,06.2,0003.6,0006.60,0010.47,0006.04
2022-02-27 10:58:00,,0831.7,5.01,0.00,22.0,22.2,00.0,31.1,23.8,06.1,0003.0,0006.54,0010.32,0006.01
2022-02-27 10:59:00,,0831.7,5.01,0.00,22.2,22.9,00.0,31.1,24.1,06.1,0002.8,0006.52,0010.24,0005.98
